Provo, UT

3:02 AM MDT on July 24, 2017 (GMT -0600)
Provo Municipal

Weather History for KPVU - November, 2011

Change the Weather History Date:

Friday, November 4, 2011

  Actual Average Record
Temperature  
Mean Temperature 48 °F -  
Max Temperature 59 °F 49 °F 71 °F (1999)
Min Temperature 37 °F 30 °F 17 °F (2002)
Degree Days  
Heating Degree Days 17    
Moisture  
Dew Point 25 °F    
Average Humidity 45    
Maximum Humidity 81    
Minimum Humidity 29    
Precipitation  
Precipitation 0.00 in - - ()
Sea Level Pressure  
Sea Level Pressure 29.68 in    
Wind  
Wind Speed 20 mph (SSE)    
Max Wind Speed 24 mph    
Max Gust Speed 31 mph    
Visibility 11 miles    
Events      
Averages and records for this station are not official NWS values.
T = Trace of Precipitation, MM = Missing Value Source: NWS Daily Summary

Daily Weather History Graph

Daily Weather History Graph

Search for Another Location

Airport or City:

Trip Planner

Search our weather history database for the weather conditions in past years. The results will help you decide how hot, cold, wet, or windy it might be!

Date:

Astronomy

Nov. 04, 2011 Rise Set
Actual Time 7:59 AM MDT 6:20 PM MDT
Civil Twilight 7:31 AM MDT 6:49 PM MDT
Nautical Twilight 6:58 AM MDT 7:21 PM MDT
Astronomical Twilight 6:27 AM MDT 7:53 PM MDT
Moon 3:14 PM MDT (11/4) 2:14 AM MDT (11/4)
Length of Visible Light 11h 17m
Length of Day
10h 21m
Waxing Gibbous, 70% of the Moon is Illuminated
Nov 4
Waxing Gibbous
Nov 10
Full
Nov 18
Last Quarter
Nov 24
New
Dec 2
First Quarter

Hourly Weather History & Observations

Time (MDT) Temp. Windchill Dew Point Humidity Pressure Visibility Wind Dir Wind Speed Gust Speed Precip Events Conditions
12:15 AM 46.4 °F 38.1 °F 21.2 °F 37% 29.80 in 10.0 mi SSE 24.2 mph 29.9 mph N/A   Clear
12:35 AM 46.4 °F 40.1 °F 23.0 °F 40% 29.80 in 10.0 mi SE 15.0 mph 24.2 mph N/A   Clear
12:55 AM 46.4 °F 38.7 °F 21.2 °F 37% 29.78 in 10.0 mi SSE 20.7 mph - N/A   Clear
1:15 AM 46.4 °F 38.7 °F 21.2 °F 37% 29.77 in 10.0 mi SE 20.7 mph 26.5 mph N/A   Clear
1:35 AM 46.4 °F 39.0 °F 21.2 °F 37% 29.76 in 10.0 mi SSE 19.6 mph 28.8 mph N/A   Clear
2:15 AM 46.4 °F 38.5 °F 21.2 °F 37% 29.75 in 10.0 mi SSE 21.9 mph 27.6 mph N/A   Clear
2:35 AM 46.4 °F 38.5 °F 21.2 °F 37% 29.74 in 10.0 mi SSE 21.9 mph 26.5 mph N/A   Clear
2:55 AM 46.4 °F 38.5 °F 21.2 °F 37% 29.74 in 10.0 mi SSE 21.9 mph - N/A   Clear
3:15 AM 44.6 °F 36.1 °F 21.2 °F 39% 29.73 in 10.0 mi SE 21.9 mph - N/A   Clear
3:35 AM 44.6 °F 36.1 °F 21.2 °F 39% 29.73 in 10.0 mi SE 21.9 mph - N/A   Clear
3:55 AM 44.6 °F 36.1 °F 21.2 °F 39% 29.73 in 10.0 mi SE 21.9 mph 28.8 mph N/A   Clear
4:15 AM 44.6 °F 36.4 °F 21.2 °F 39% 29.72 in 10.0 mi SE 20.7 mph 27.6 mph N/A   Clear
4:35 AM 44.6 °F 35.9 °F 21.2 °F 39% 29.72 in 10.0 mi SE 23.0 mph - N/A   Clear
4:55 AM 44.6 °F 36.4 °F 21.2 °F 39% 29.71 in 10.0 mi SE 20.7 mph - N/A   Clear
5:15 AM 44.6 °F 35.9 °F 21.2 °F 39% 29.70 in 10.0 mi SE 23.0 mph 26.5 mph N/A   Clear
5:35 AM 44.6 °F 35.9 °F 21.2 °F 39% 29.70 in 10.0 mi SE 23.0 mph 28.8 mph N/A   Clear
5:55 AM 46.4 °F 38.1 °F 21.2 °F 37% 29.69 in 10.0 mi SE 24.2 mph 29.9 mph N/A   Clear
6:15 AM 44.6 °F 35.9 °F 21.2 °F 39% 29.68 in 10.0 mi SE 23.0 mph 31.1 mph N/A   Clear
6:35 AM 46.4 °F 38.3 °F 21.2 °F 37% 29.67 in 10.0 mi SE 23.0 mph 26.5 mph N/A   Clear
6:52 AM 46.4 °F 38.7 °F 23.0 °F 40% 29.67 in 10.0 mi SE 20.7 mph - N/A   Clear
7:48 AM 46.4 °F 38.1 °F 23.0 °F 40% 29.65 in 15.0 mi SE 24.2 mph 29.9 mph N/A   Partly Cloudy
8:49 AM 48.2 °F - 23.0 °F 37% 29.67 in 15.0 mi SE 21.9 mph - N/A   Partly Cloudy
9:48 AM 51.8 °F - 24.8 °F 35% 29.67 in 15.0 mi SE 16.1 mph - N/A   Partly Cloudy
10:55 AM 55.4 °F - 24.8 °F 31% 29.66 in 15.0 mi SE 17.3 mph - N/A   Partly Cloudy
11:50 AM 59.0 °F - 26.6 °F 29% 29.65 in 15.0 mi ESE 13.8 mph - N/A   Scattered Clouds
1:48 PM 57.2 °F - 26.6 °F 31% 29.58 in 15.0 mi West 6.9 mph - N/A   Scattered Clouds
3:59 PM 55.4 °F - 28.4 °F 36% 29.56 in 15.0 mi South 19.6 mph 25.3 mph N/A   Mostly Cloudy
5:48 PM 53.6 °F - 28.4 °F 38% 29.55 in 15.0 mi SSE 9.2 mph - N/A   Mostly Cloudy
6:48 PM 51.8 °F - 28.4 °F 41% 29.56 in 15.0 mi SSE 10.4 mph - N/A   Mostly Cloudy
7:47 PM 48.2 °F - 26.6 °F 43% 29.59 in 15.0 mi WNW 10.4 mph - N/A   Overcast
8:50 PM 46.4 °F 42.4 °F 28.4 °F 50% 29.60 in 15.0 mi WNW 8.1 mph - N/A   Overcast
9:15 PM 42.8 °F 34.5 °F 30.2 °F 61% 29.62 in 10.0 mi NW 18.4 mph 25.3 mph N/A   Overcast
9:35 PM 41.0 °F 31.4 °F 30.2 °F 65% 29.63 in 10.0 mi NNW 21.9 mph 26.5 mph N/A   Mostly Cloudy
9:55 PM 39.2 °F 29.6 °F 30.2 °F 70% 29.63 in 10.0 mi NW 19.6 mph 24.2 mph N/A   Partly Cloudy
10:15 PM 39.2 °F 30.2 °F 32.0 °F 75% 29.64 in 10.0 mi WNW 17.3 mph - N/A   Partly Cloudy
10:55 PM 37.4 °F 26.9 °F 30.2 °F 75% 29.64 in 10.0 mi NW 20.7 mph - N/A   Overcast
11:15 PM 37.4 °F 26.9 °F 30.2 °F 75% 29.65 in 10.0 mi NW 20.7 mph 24.2 mph N/A   Overcast
11:35 PM 37.4 °F 26.9 °F 32.0 °F 81% 29.64 in 10.0 mi NW 20.7 mph 24.2 mph N/A   Mostly Cloudy
11:55 PM 37.4 °F 26.6 °F 32.0 °F 81% 29.63 in 10.0 mi NW 21.9 mph 26.5 mph N/A   Mostly Cloudy